Time,TemperatureF,DewpointF,PressureIn,WindDirection,WindDirectionDegrees,WindSpeedMPH,WindSpeedGustMPH,Humidity,HourlyPrecipIn,Conditions,Clouds,dailyrainin,SoftwareType,DateUTC
2013-02-12 00:01:00,33.0,24.0,29.86,SSW,207,2.0,10.0,70,0.00,,,0.00,,2013-02-12 05:01:00,
2013-02-12 00:11:00,33.0,25.0,29.87,West,269,3.0,14.0,71,0.00,,,0.00,,2013-02-12 05:11:00,
2013-02-12 00:21:00,33.0,25.0,29.87,West,269,3.0,14.0,71,0.00,,,0.00,,2013-02-12 05:21:00,
2013-02-12 00:32:00,33.0,25.0,29.88,West,264,6.0,13.0,71,0.00,,,0.00,,2013-02-12 05:32:00,
2013-02-12 00:42:00,33.0,25.0,29.88,West,264,6.0,13.0,71,0.00,,,0.00,,2013-02-12 05:42:00,
2013-02-12 00:52:00,33.0,25.0,29.88,West,265,2.0,13.0,71,0.00,,,0.00,,2013-02-12 05:52:00,
2013-02-12 01:02:00,33.0,25.0,29.89,WSW,245,8.0,13.0,71,0.00,,,0.00,,2013-02-12 06:02:00,
2013-02-12 01:12:00,33.0,25.0,29.89,WSW,257,3.0,13.0,71,0.00,,,0.00,,2013-02-12 06:12:00,
2013-02-12 01:21:00,33.0,25.0,29.89,WSW,257,3.0,13.0,71,0.00,,,0.00,,2013-02-12 06:21:00,
2013-02-12 01:32:00,33.0,25.0,29.90,WSW,254,3.0,11.0,71,0.00,,,0.00,,2013-02-12 06:32:00,
2013-02-12 01:42:00,33.0,25.0,29.90,West,261,3.0,11.0,71,0.00,,,0.00,,2013-02-12 06:42:00,
2013-02-12 01:51:00,33.0,25.0,29.90,West,261,3.0,11.0,71,0.00,,,0.00,,2013-02-12 06:51:00,
2013-02-12 02:01:00,33.0,25.0,29.91,South,187,3.0,11.0,71,0.00,,,0.00,,2013-02-12 07:01:00,
2013-02-12 02:11:00,33.0,25.0,29.91,South,187,3.0,11.0,71,0.00,,,0.00,,2013-02-12 07:11:00,
2013-02-12 02:21:00,32.0,24.0,29.91,West,281,4.0,11.0,71,0.00,,,0.00,,2013-02-12 07:21:00,
2013-02-12 02:32:00,32.0,24.0,29.92,WSW,254,4.0,10.0,71,0.00,,,0.00,,2013-02-12 07:32:00,
2013-02-12 02:42:00,32.0,24.0,29.92,WSW,254,4.0,10.0,71,0.00,,,0.00,,2013-02-12 07:42:00,
2013-02-12 02:51:00,32.0,23.0,29.92,SW,236,3.0,13.0,70,0.00,,,0.00,,2013-02-12 07:51:00,
2013-02-12 03:01:00,32.0,24.0,29.93,SW,235,6.0,11.0,71,0.00,,,0.00,,2013-02-12 08:01:00,
2013-02-12 03:11:00,32.0,24.0,29.93,SW,235,6.0,11.0,71,0.00,,,0.00,,2013-02-12 08:11:00,
2013-02-12 03:21:00,32.0,23.0,29.93,WSW,253,3.0,12.0,70,0.00,,,0.00,,2013-02-12 08:21:00,
2013-02-12 03:32:00,32.0,24.0,29.93,WNW,286,3.0,13.0,71,0.00,,,0.00,,2013-02-12 08:32:00,
2013-02-12 03:42:00,32.0,24.0,29.93,WNW,286,3.0,13.0,71,0.00,,,0.00,,2013-02-12 08:42:00,
2013-02-12 03:52:00,32.0,23.0,29.93,West,276,6.0,13.0,70,0.00,,,0.00,,2013-02-12 08:52:00,
2013-02-12 04:02:00,32.0,23.0,29.93,WNW,298,3.0,12.0,70,0.00,,,0.00,,2013-02-12 09:02:00,
2013-02-12 04:11:00,32.0,23.0,29.93,WNW,298,3.0,12.0,70,0.00,,,0.00,,2013-02-12 09:11:00,
2013-02-12 04:21:00,32.0,23.0,29.93,WNW,288,2.0,12.0,70,0.00,,,0.00,,2013-02-12 09:21:00,
2013-02-12 04:32:00,32.0,24.0,29.94,West,275,3.0,11.0,72,0.00,,,0.00,,2013-02-12 09:32:00,
2013-02-12 04:42:00,32.0,24.0,29.94,WSW,240,3.0,11.0,72,0.00,,,0.00,,2013-02-12 09:42:00,
2013-02-12 04:51:00,32.0,24.0,29.94,WSW,240,3.0,11.0,72,0.00,,,0.00,,2013-02-12 09:51:00,
2013-02-12 05:01:00,32.0,24.0,29.95,WSW,254,3.0,10.0,73,0.00,,,0.00,,2013-02-12 10:01:00,
2013-02-12 05:11:00,32.0,24.0,29.95,West,272,5.0,10.0,73,0.00,,,0.00,,2013-02-12 10:11:00,
2013-02-12 05:21:00,32.0,24.0,29.95,West,272,5.0,10.0,73,0.00,,,0.00,,2013-02-12 10:21:00,
2013-02-12 05:32:00,31.0,23.0,29.96,NW,323,2.0,9.0,73,0.00,,,0.00,,2013-02-12 10:32:00,
2013-02-12 05:43:00,31.0,23.0,29.96,NW,323,2.0,9.0,73,0.00,,,0.00,,2013-02-12 10:43:00,
2013-02-12 05:51:00,31.0,23.0,29.96,West,280,3.0,13.0,72,0.00,,,0.00,,2013-02-12 10:51:00,
2013-02-12 06:01:00,31.0,23.0,29.96,WSW,257,7.0,11.0,71,0.00,,,0.00,,2013-02-12 11:01:00,
2013-02-12 06:11:00,31.0,23.0,29.96,WSW,257,7.0,11.0,71,0.00,,,0.00,,2013-02-12 11:11:00,
2013-02-12 06:22:00,31.0,23.0,29.97,WSW,257,3.0,12.0,72,0.00,,,0.00,,2013-02-12 11:22:00,
2013-02-12 06:32:00,31.0,23.0,29.98,WSW,254,6.0,10.0,73,0.00,,,0.00,,2013-02-12 11:32:00,
2013-02-12 06:42:00,31.0,23.0,29.98,WSW,254,6.0,10.0,73,0.00,,,0.00,,2013-02-12 11:42:00,
2013-02-12 06:52:00,31.0,23.0,29.98,West,263,3.0,10.0,72,0.00,,,0.00,,2013-02-12 11:52:00,
2013-02-12 07:01:00,31.0,23.0,29.98,West,281,8.0,9.0,73,0.00,,,0.00,,2013-02-12 12:01:00,
2013-02-12 07:11:00,31.0,23.0,29.99,WSW,238,3.0,9.0,72,0.00,,,0.00,,2013-02-12 12:11:00,
2013-02-12 07:21:00,31.0,23.0,29.99,WSW,238,3.0,9.0,72,0.00,,,0.00,,2013-02-12 12:21:00,
2013-02-12 07:32:00,31.0,23.0,30.00,NNW,327,3.0,10.0,72,0.00,,,0.00,,2013-02-12 12:32:00,
2013-02-12 07:42:00,31.0,23.0,30.00,NNW,327,3.0,10.0,72,0.00,,,0.00,,2013-02-12 12:42:00,
2013-02-12 07:53:00,31.0,23.0,30.01,WNW,284,3.0,10.0,72,0.00,,,0.00,,2013-02-12 12:53:00,
2013-02-12 08:01:00,31.0,23.0,30.01,WNW,295,2.0,11.0,72,0.00,,,0.00,,2013-02-12 13:01:00,
2013-02-12 08:11:00,31.0,23.0,30.01,WSW,249,4.0,11.0,72,0.00,,,0.00,,2013-02-12 13:11:00,
2013-02-12 08:22:00,31.0,23.0,30.01,WSW,249,4.0,11.0,72,0.00,,,0.00,,2013-02-12 13:22:00,
2013-02-12 08:32:00,31.0,23.0,30.03,SSW,200,1.0,8.0,72,0.00,,,0.00,,2013-02-12 13:32:00,
2013-02-12 08:42:00,31.0,23.0,30.03,SSW,200,1.0,8.0,72,0.00,,,0.00,,2013-02-12 13:42:00,
2013-02-12 08:52:00,31.0,23.0,30.03,WSW,252,1.0,8.0,72,0.00,,,0.00,,2013-02-12 13:52:00,
2013-02-12 09:01:00,31.0,23.0,30.03,West,271,4.0,10.0,72,0.00,,,0.00,,2013-02-12 14:01:00,
2013-02-12 09:12:00,31.0,23.0,30.03,West,271,4.0,10.0,72,0.00,,,0.00,,2013-02-12 14:12:00,
2013-02-12 09:21:00,31.0,23.0,30.03,WNW,291,3.0,10.0,72,0.00,,,0.00,,2013-02-12 14:21:00,
2013-02-12 09:32:00,31.0,23.0,30.03,West,267,1.0,9.0,72,0.00,,,0.00,,2013-02-12 14:32:00,
2013-02-12 09:42:00,31.0,23.0,30.03,West,267,1.0,9.0,72,0.00,,,0.00,,2013-02-12 14:42:00,
2013-02-12 09:52:00,31.0,23.0,30.03,WNW,283,1.0,9.0,73,0.00,,,0.00,,2013-02-12 14:52:00,
2013-02-12 10:02:00,31.0,24.0,30.04,SW,234,4.0,9.0,75,0.00,,,0.00,,2013-02-12 15:02:00,
2013-02-12 10:11:00,31.0,24.0,30.04,WSW,242,3.0,9.0,75,0.00,,,0.00,,2013-02-12 15:11:00,
2013-02-12 10:21:00,31.0,24.0,30.04,WSW,242,3.0,9.0,75,0.00,,,0.00,,2013-02-12 15:21:00,
2013-02-12 10:32:00,31.0,24.0,30.03,WNW,284,3.0,7.0,74,0.00,,,0.00,,2013-02-12 15:32:00,
2013-02-12 10:42:00,31.0,24.0,30.03,WNW,284,3.0,7.0,74,0.00,,,0.00,,2013-02-12 15:42:00,
2013-02-12 10:52:00,31.0,24.0,30.03,West,275,3.0,10.0,74,0.00,,,0.00,,2013-02-12 15:52:00,
2013-02-12 11:01:00,31.0,23.0,30.04,WSW,256,3.0,7.0,73,0.00,,,0.00,,2013-02-12 16:01:00,
2013-02-12 11:11:00,31.0,23.0,30.04,WSW,256,3.0,7.0,73,0.00,,,0.00,,2013-02-12 16:11:00,
2013-02-12 11:22:00,32.0,24.0,30.05,SSW,209,1.0,9.0,72,0.00,,,0.00,,2013-02-12 16:22:00,
2013-02-12 11:32:00,31.0,23.0,30.05,West,275,2.0,8.0,72,0.00,,,0.00,,2013-02-12 16:32:00,
2013-02-12 11:42:00,31.0,23.0,30.05,West,275,2.0,8.0,72,0.00,,,0.00,,2013-02-12 16:42:00,
2013-02-12 11:52:00,32.0,24.0,30.03,West,264,5.0,11.0,73,0.00,,,0.00,,2013-02-12 16:52:00,
2013-02-12 12:01:00,32.0,24.0,30.03,West,271,3.0,7.0,72,0.00,,,0.00,,2013-02-12 17:01:00,
2013-02-12 12:12:00,32.0,24.0,30.03,West,271,3.0,7.0,72,0.00,,,0.00,,2013-02-12 17:12:00,
2013-02-12 12:21:00,32.0,24.0,30.03,West,273,5.0,10.0,71,0.00,,,0.00,,2013-02-12 17:21:00,
2013-02-12 12:32:00,32.0,24.0,30.01,West,263,3.0,10.0,71,0.00,,,0.00,,2013-02-12 17:32:00,
2013-02-12 12:42:00,32.0,24.0,30.01,West,263,3.0,10.0,71,0.00,,,0.00,,2013-02-12 17:42:00,
2013-02-12 12:52:00,32.0,24.0,30.01,West,274,2.0,10.0,71,0.00,,,0.00,,2013-02-12 17:52:00,
2013-02-12 13:01:00,32.0,24.0,30.02,SW,215,5.0,10.0,72,0.00,,,0.00,,2013-02-12 18:01:00,
2013-02-12 13:11:00,32.0,24.0,30.02,WSW,256,3.0,10.0,72,0.00,,,0.00,,2013-02-12 18:11:00,
2013-02-12 13:23:00,32.0,24.0,30.02,WSW,256,3.0,10.0,72,0.00,,,0.00,,2013-02-12 18:23:00,
2013-02-12 13:32:00,32.0,24.0,30.02,West,263,3.0,13.0,72,0.00,,,0.00,,2013-02-12 18:32:00,
2013-02-12 13:41:00,32.0,24.0,30.02,West,263,3.0,13.0,72,0.00,,,0.00,,2013-02-12 18:41:00,
2013-02-12 13:51:00,32.0,24.0,30.01,West,277,2.0,13.0,72,0.00,,,0.00,,2013-02-12 18:51:00,
2013-02-12 14:02:00,33.0,25.0,29.99,WSW,245,3.0,6.0,72,0.00,,,0.00,,2013-02-12 19:02:00,
2013-02-12 14:11:00,33.0,24.0,29.96,West,263,3.0,9.0,70,0.00,,,0.00,,2013-02-12 19:11:00,
2013-02-12 14:21:00,33.0,24.0,29.96,West,263,3.0,9.0,70,0.00,,,0.00,,2013-02-12 19:21:00,
2013-02-12 14:31:00,34.0,25.0,29.95,WNW,287,2.0,7.0,69,0.00,,,0.00,,2013-02-12 19:31:00,
2013-02-12 14:42:00,34.0,25.0,29.94,West,277,0.0,7.0,68,0.00,,,0.00,,2013-02-12 19:42:00,
2013-02-12 14:52:00,34.0,25.0,29.94,West,277,0.0,7.0,68,0.00,,,0.00,,2013-02-12 19:52:00,
2013-02-12 15:01:00,35.0,25.0,29.94,SW,234,9.0,9.0,67,0.00,,,0.00,,2013-02-12 20:01:00,
2013-02-12 15:11:00,35.0,25.0,29.94,SW,234,9.0,9.0,67,0.00,,,0.00,,2013-02-12 20:11:00,
2013-02-12 15:21:00,34.0,25.0,29.94,WNW,286,3.0,9.0,69,0.00,,,0.00,,2013-02-12 20:21:00,
2013-02-12 15:32:00,35.0,25.0,29.96,West,274,2.0,9.0,66,0.00,,,0.00,,2013-02-12 20:32:00,
2013-02-12 15:41:00,35.0,25.0,29.96,West,274,2.0,9.0,66,0.00,,,0.00,,2013-02-12 20:41:00,
2013-02-12 15:52:00,35.0,25.0,29.96,SSW,203,6.0,9.0,67,0.00,,,0.00,,2013-02-12 20:52:00,
2013-02-12 16:01:00,36.0,25.0,29.97,SW,236,6.0,8.0,65,0.00,,,0.00,,2013-02-12 21:01:00,
2013-02-12 16:11:00,36.0,25.0,29.97,SW,236,6.0,8.0,65,0.00,,,0.00,,2013-02-12 21:11:00,
2013-02-12 16:21:00,36.0,26.0,29.97,SW,227,1.0,11.0,66,0.00,,,0.00,,2013-02-12 21:21:00,
2013-02-12 16:31:00,36.0,25.0,29.98,WSW,257,3.0,9.0,65,0.00,,,0.00,,2013-02-12 21:31:00,
2013-02-12 16:42:00,36.0,25.0,29.98,WSW,246,3.0,10.0,65,0.00,,,0.00,,2013-02-12 21:42:00,
2013-02-12 16:52:00,36.0,25.0,29.98,WSW,246,3.0,10.0,65,0.00,,,0.00,,2013-02-12 21:52:00,
2013-02-12 17:01:00,36.0,25.0,29.97,SW,226,3.0,8.0,64,0.00,,,0.00,,2013-02-12 22:01:00,
2013-02-12 17:12:00,36.0,25.0,29.97,SW,226,3.0,8.0,64,0.00,,,0.00,,2013-02-12 22:12:00,
2013-02-12 17:21:00,36.0,25.0,29.97,West,275,2.0,8.0,65,0.00,,,0.00,,2013-02-12 22:21:00,
2013-02-12 17:32:00,36.0,26.0,29.97,West,273,2.0,5.0,66,0.00,,,0.00,,2013-02-12 22:32:00,
2013-02-12 17:42:00,36.0,26.0,29.97,West,273,2.0,5.0,66,0.00,,,0.00,,2013-02-12 22:42:00,
2013-02-12 17:51:00,36.0,26.0,29.97,WSW,257,3.0,6.0,66,0.00,,,0.00,,2013-02-12 22:51:00,
2013-02-12 18:01:00,35.0,26.0,29.97,WSW,254,1.0,3.0,69,0.00,,,0.00,,2013-02-12 23:01:00,
2013-02-12 18:11:00,34.0,25.0,29.97,WSW,250,0.0,3.0,70,0.00,,,0.00,,2013-02-12 23:11:00,
2013-02-12 18:21:00,34.0,25.0,29.97,WSW,250,0.0,3.0,70,0.00,,,0.00,,2013-02-12 23:21:00,
2013-02-12 18:32:00,34.0,26.0,29.97,SW,226,1.0,2.0,71,0.00,,,0.00,,2013-02-12 23:32:00,
2013-02-12 18:42:00,34.0,26.0,29.97,SW,226,1.0,2.0,71,0.00,,,0.00,,2013-02-12 23:42:00,
2013-02-12 18:52:00,32.0,25.0,29.97,NE,53,1.0,3.0,76,0.00,,,0.00,,2013-02-12 23:52:00,
2013-02-12 19:02:00,30.0,25.0,29.97,NNE,27,1.0,3.0,81,0.00,,,0.00,,2013-02-13 00:02:00,
2013-02-12 19:11:00,30.0,25.0,29.97,NNE,27,1.0,3.0,81,0.00,,,0.00,,2013-02-13 00:11:00,
2013-02-12 19:21:00,30.0,25.0,29.97,NNE,28,0.0,3.0,81,0.00,,,0.00,,2013-02-13 00:21:00,
2013-02-12 19:32:00,30.0,25.0,29.96,ENE,64,0.0,2.0,82,0.00,,,0.00,,2013-02-13 00:32:00,
2013-02-12 19:42:00,30.0,25.0,29.96,ENE,64,0.0,2.0,82,0.00,,,0.00,,2013-02-13 00:42:00,
2013-02-12 19:52:00,29.0,25.0,29.96,ENE,64,0.0,2.0,83,0.00,,,0.00,,2013-02-13 00:52:00,
2013-02-12 20:01:00,29.0,25.0,29.95,ENE,65,0.0,1.0,84,0.00,,,0.00,,2013-02-13 01:01:00,
2013-02-12 20:11:00,29.0,25.0,29.95,ENE,65,0.0,1.0,84,0.00,,,0.00,,2013-02-13 01:11:00,
2013-02-12 20:21:00,29.0,25.0,29.95,ENE,65,0.0,1.0,84,0.00,,,0.00,,2013-02-13 01:21:00,
2013-02-12 20:31:00,29.0,25.0,29.94,ENE,64,0.0,0.0,85,0.00,,,0.00,,2013-02-13 01:31:00,
2013-02-12 20:42:00,28.0,24.0,29.94,ENE,65,0.0,1.0,86,0.00,,,0.00,,2013-02-13 01:42:00,
2013-02-12 20:51:00,28.0,24.0,29.94,ENE,65,0.0,1.0,86,0.00,,,0.00,,2013-02-13 01:51:00,
2013-02-12 21:01:00,28.0,24.0,29.94,ENE,67,0.0,1.0,86,0.00,,,0.00,,2013-02-13 02:01:00,
2013-02-12 21:11:00,28.0,24.0,29.94,ENE,67,0.0,1.0,86,0.00,,,0.00,,2013-02-13 02:11:00,
2013-02-12 21:22:00,28.0,24.0,29.94,ENE,67,0.0,1.0,86,0.00,,,0.00,,2013-02-13 02:22:00,
2013-02-12 21:32:00,27.0,23.0,29.93,SE,129,0.0,1.0,86,0.00,,,0.00,,2013-02-13 02:32:00,
2013-02-12 21:42:00,27.0,23.0,29.93,SE,129,0.0,1.0,86,0.00,,,0.00,,2013-02-13 02:42:00,
2013-02-12 21:52:00,27.0,24.0,29.93,SE,130,0.0,1.0,87,0.00,,,0.00,,2013-02-13 02:52:00,
2013-02-12 22:01:00,27.0,24.0,29.93,SE,129,0.0,1.0,88,0.00,,,0.00,,2013-02-13 03:01:00,
2013-02-12 22:11:00,27.0,24.0,29.93,SE,130,0.0,1.0,88,0.00,,,0.00,,2013-02-13 03:11:00,
2013-02-12 22:21:00,27.0,24.0,29.93,SE,130,0.0,1.0,88,0.00,,,0.00,,2013-02-13 03:21:00,
2013-02-12 22:32:00,27.0,24.0,29.92,SE,129,0.0,0.0,88,0.00,,,0.00,,2013-02-13 03:32:00,
2013-02-12 22:42:00,27.0,24.0,29.92,SE,129,0.0,0.0,88,0.00,,,0.00,,2013-02-13 03:42:00,
2013-02-12 22:51:00,27.0,24.0,29.92,SE,138,0.0,1.0,88,0.00,,,0.00,,2013-02-13 03:51:00,
2013-02-12 23:01:00,27.0,24.0,29.92,SE,139,0.0,0.0,88,0.00,,,0.00,,2013-02-13 04:01:00,
2013-02-12 23:11:00,27.0,24.0,29.92,SE,139,0.0,0.0,88,0.00,,,0.00,,2013-02-13 04:11:00,
2013-02-12 23:21:00,27.0,24.0,29.91,SSE,151,0.0,1.0,88,0.00,,,0.00,,2013-02-13 04:21:00,
2013-02-12 23:32:00,27.0,24.0,29.91,SSE,148,1.0,2.0,88,0.00,,,0.00,,2013-02-13 04:32:00,
2013-02-12 23:42:00,27.0,24.0,29.91,SSE,148,1.0,2.0,88,0.00,,,0.00,,2013-02-13 04:42:00,
2013-02-12 23:52:00,28.0,25.0,29.91,SSE,156,1.0,2.0,88,0.00,,,0.00,,2013-02-13 04:52:00,